Regional Weather Roundup
Issued by NWS

Home | Current Version | Previous Version | Text Only | Print | Product List | Glossary Off
Versions: 1 2 3 4 5 6 7 8 9 10 11 12 13 14 15 16 17 18 19 20 21 22 23 24 25 26 27 28 29 30 31 32 33 34 35 36 37 38 39 40 41 42 43 44 45 46 47 48 49 50

000
ASUS45 KTFX 310110
RWRMT
MONTANA REGIONAL WEATHER ROUNDUP
NATIONAL WEATHER SERVICE GREAT FALLS MT
700 PM MDT SUN AUG 30 2015

NOTE: "FAIR" INDICATES FEW OR NO CLOUDS BELOW 12000 FEET WITH NO
SIGNIFICANT WEATHER AND/OR OBSTRUCTIONS TO VISIBILITY.

MTZ001>007-043-310200-
WEST OF THE DIVIDE

CITY           SKY/WX    TMP DP  RH WIND       PRES   REMARKS
KALISPELL      CLOUDY    60  41  49 SW9       29.91S
MISSOULA       LGT RAIN  53  50  89 CALM      30.02R
BUTTE          CLOUDY    64  37  36 NW9       29.94R
MULLAN PASS    CLOUDY    41  40  96 SW8       30.03R
DEER LODGE       N/A     63  39  42 N9        29.94R
EUREKA           N/A     61  39  44 S12       29.89R
HAMILTON         N/A     59  39  47 W18       29.99R
LIBBY            N/A     55  46  71 CALM      29.93R
PLAINS           N/A     60  44  55 SW7       29.98S
$$

MTZ008-052>055-310200-
SOUTHWEST MONTANA

CITY           SKY/WX    TMP DP  RH WIND       PRES   REMARKS
BOZEMAN        PTSUNNY   79  26  14 SW12      29.79R
DILLON         CLOUDY    72  19  13 W26G35    29.88R
W YELLOWSTONE  MOSUNNY   66  16  14 SW13G26   30.04R
$$

MTZ009-010-012-014-046-048-049-054-310200-
EAST SLOPES AND CENTRAL MONTANA

CITY           SKY/WX    TMP DP  RH WIND       PRES   REMARKS
CUT BANK       CLOUDY    60  39  45 W28G37    29.82F
GREAT FALLS    CLOUDY    65  38  36 W23G36    29.79R
MALMSTROM AFB  CLOUDY    67  38  35 W26G36    29.80R
HELENA         CLOUDY    68  39  34 NW7       29.87R
CONRAD           N/A     63  43  48 SW20      29.85R
$$

MTZ011-013-016-021-045-047-050-051-310200-
NORTH CENTRAL MONTANA

CITY           SKY/WX    TMP DP  RH WIND       PRES   REMARKS
HAVRE          MOCLDY    78  36  21 W30G38    29.68R HAZE
LEWISTOWN      CLOUDY    70  47  43 S5        29.78R
N BAR RANCH      N/A     55  50  82 NW9       29.82F
CHINOOK          N/A     81  37  21 SW9       29.65S
FORT BENTON      N/A     73  36  25 W21G30    29.76R
$$

MTZ017>020-022>027-061-062-310200-
NORTHEAST MONTANA

CITY           SKY/WX    TMP DP  RH WIND       PRES   REMARKS
GLASGOW        MOCLDY    78  48  34 N3        29.69R
JORDAN           N/A     78  49  35 N12       29.71R
SIDNEY         PTCLDY    79  46  31 NE6       29.69F
WOLF POINT     MOCLDY    82  52  35 CALM      29.67F
MALTA            N/A     74  57  55 CALM      29.67F
PLENTYWOOD       N/A     81  48  32 S3        29.71S
POPLAR           N/A     79  50  36 CALM      29.69F
$$

MTZ028>42-056>058-310200-
SOUTHCENTRAL AND SOUTHEAST MONTANA

CITY           SKY/WX    TMP DP  RH WIND       PRES   REMARKS
BAKER          MOCLDY    82  52  35 E7        29.75F
BILLINGS       MOCLDY    82  47  29 E9        29.73F
LIVINGSTON     MOSUNNY   81  30  15 SW28G39   29.77S
MILES CITY     CLOUDY    80  50  34 SW8       29.75R THUNDER
EKALAKA          N/A     76  51  41 NE5       29.78F
FORSYTH          N/A     82  48  30 E7        29.69F
LAUREL           N/A     83  49  30 CALM      29.75F
$$

REGIONAL REPORTS...DAKOTAS

CITY           SKY/WX    TMP DP  RH WIND       PRES   REMARKS
WILLISTON      PTCLDY    77  47  34 NE3       29.71S
MINOT          MOCLDY    79  58  48 W7        29.66R HAZE
DICKINSON      MOCLDY    78  52  40 N6        29.72  HAZE
CROSBY           N/A     72  48  43 SE5       29.70S
BISMARCK       PTCLDY    88  65  46 NE3       29.62F HX  90
GRAND FORKS    CLOUDY    81  69  67 S16G23    29.65S
FARGO          MOCLDY    81  68  64 SE15G26   29.71S
BUFFALO SD       N/A     80  54  40 N9        29.69S
RAPID CITY     MOCLDY    81  59  47 NW5       29.75R
$$

REGIONAL REPORTS...WYOMING/IDAHO/WASHINGTON

CITY           SKY/WX    TMP DP  RH WIND       PRES   REMARKS
GILLETTE       CLOUDY    79  52  38 CALM      29.82F
SHERIDAN       CLOUDY    77  52  41 W3        29.79F
BUFFALO WY     CLOUDY    75  50  41 N8        29.86F
CODY           MOCLDY    81  36  19 SW13G25   29.85S
YELLOWSTONE LA   N/A     61  31  32 W8        30.15R
IDAHO FALLS    MOSUNNY   75  31  19 SW17      29.98R
SALMON         PTSUNNY   73  27  17 W18G25    29.87R
BOISE          SUNNY     78  36  21 NW9G20    29.95S
SPOKANE        MOSUNNY   66  40  38 SW26      29.92S
$$

REGIONAL REPORTS...ALBERTA

CITY           SKY/WX    TMP DP  RH WIND       PRES   REMARKS
EDMONTON       SUNNY     68  41  37 W6        29.50S
CALGARY        PTSUNNY   61  36  39 W32G43    29.63R
LETHBRIDGE     PTSUNNY   64  36  34 SW21G28   29.74R
WATERTON GATE    N/A     52  39  62 SW24G37     N/A
CARDSTON         N/A     61  36  39 SW9G17      N/A
MILK RIVER       N/A     63  36  36 W26G37      N/A
ONEFOUR          N/A     70  34  26 W29G40      N/A
$$

REGIONAL REPORTS...SASKATCHEWAN

CITY           SKY/WX    TMP DP  RH WIND       PRES   REMARKS
SWIFT CURRENT  CLEAR     75  37  25 W13G18    29.65R
REGINA         PTCLDY    68  59  73 SE9       29.66S
SASKATOON      PTCLDY    73  45  35 SW7       29.56S
CYPRESS HILLS    N/A     68  28  22 W8          N/A
VAL MARIE        N/A     72  48  43 S6          N/A
ROCKGLEN         N/A     68  55  64 SW6         N/A
ASSINIBOIA       N/A     72  41  33 NW12        N/A
$$



USA.gov is the U.S. government's official web portal to all federal, state and local government web resources and services.